Year,Month,Day,Hour,Minute,Value (Times are PST for temperature in C)
2017,05,22,00,00,14.60
2017,05,22,00,01,14.60
2017,05,22,00,02,14.60
2017,05,22,00,03,14.60
2017,05,22,00,04,14.60
2017,05,22,00,05,14.60
2017,05,22,00,06,14.50
2017,05,22,00,07,14.50
2017,05,22,00,08,14.40
2017,05,22,00,09,14.40
2017,05,22,00,10,14.40
2017,05,22,00,11,14.40
2017,05,22,00,12,14.30
2017,05,22,00,13,14.30
2017,05,22,00,14,14.30
2017,05,22,00,15,14.30
2017,05,22,00,16,14.20
2017,05,22,00,17,14.20
2017,05,22,00,18,14.20
2017,05,22,00,19,14.20
2017,05,22,00,20,14.20
2017,05,22,00,21,14.20
2017,05,22,00,22,14.20
2017,05,22,00,23,14.20
2017,05,22,00,24,14.20
2017,05,22,00,25,14.30
2017,05,22,00,26,14.30
2017,05,22,00,27,14.30
2017,05,22,00,28,14.30
2017,05,22,00,29,14.40
2017,05,22,00,30,14.40
2017,05,22,00,31,14.40
2017,05,22,00,32,14.50
2017,05,22,00,33,14.50
2017,05,22,00,34,14.60
2017,05,22,00,35,14.60
2017,05,22,00,36,14.60
2017,05,22,00,37,14.60
2017,05,22,00,38,14.60
2017,05,22,00,39,14.60
2017,05,22,00,40,14.60
2017,05,22,00,41,14.60
2017,05,22,00,42,14.70
2017,05,22,00,43,14.70
2017,05,22,00,44,14.70
2017,05,22,00,45,14.60
2017,05,22,00,46,14.60
2017,05,22,00,47,14.60
2017,05,22,00,48,14.60
2017,05,22,00,49,14.60
2017,05,22,00,50,14.60
2017,05,22,00,51,14.50
2017,05,22,00,52,14.50
2017,05,22,00,53,14.50
2017,05,22,00,54,14.50
2017,05,22,00,55,14.40
2017,05,22,00,56,14.40
2017,05,22,00,57,14.40
2017,05,22,00,58,14.40
2017,05,22,00,59,14.40
2017,05,22,01,00,14.40
2017,05,22,01,01,14.40
2017,05,22,01,02,14.40
2017,05,22,01,03,14.40
2017,05,22,01,04,14.40
2017,05,22,01,05,14.40
2017,05,22,01,06,14.40
2017,05,22,01,07,14.40
2017,05,22,01,08,14.40
2017,05,22,01,09,14.40
2017,05,22,01,10,14.40
2017,05,22,01,11,14.40
2017,05,22,01,12,14.40
2017,05,22,01,13,14.40
2017,05,22,01,14,14.40
2017,05,22,01,15,14.40
2017,05,22,01,16,14.30
2017,05,22,01,17,14.30
2017,05,22,01,18,14.30
2017,05,22,01,19,14.30
2017,05,22,01,20,14.30
2017,05,22,01,21,14.30
2017,05,22,01,22,14.30
2017,05,22,01,23,14.30
2017,05,22,01,24,14.30
2017,05,22,01,25,14.30
2017,05,22,01,26,14.30
2017,05,22,01,27,14.40
2017,05,22,01,28,14.40
2017,05,22,01,29,14.40
2017,05,22,01,30,14.40
2017,05,22,01,31,14.50
2017,05,22,01,32,14.50
2017,05,22,01,33,14.50
2017,05,22,01,34,14.60
2017,05,22,01,35,14.60
2017,05,22,01,36,14.60
2017,05,22,01,37,14.60
2017,05,22,01,38,14.60
2017,05,22,01,39,14.70
2017,05,22,01,40,14.70
2017,05,22,01,41,14.70
2017,05,22,01,42,14.70
2017,05,22,01,43,14.70
2017,05,22,01,44,14.60
2017,05,22,01,45,14.60
2017,05,22,01,46,14.60
2017,05,22,01,47,14.60
2017,05,22,01,48,14.60
2017,05,22,01,49,14.60
2017,05,22,01,50,14.60
2017,05,22,01,51,14.60
2017,05,22,01,52,14.50
2017,05,22,01,53,14.50
2017,05,22,01,54,14.50
2017,05,22,01,55,14.50
2017,05,22,01,56,14.50
2017,05,22,01,57,14.50
2017,05,22,01,58,14.50
2017,05,22,01,59,14.50
2017,05,22,02,00,14.50
2017,05,22,02,01,14.50
2017,05,22,02,02,14.40
2017,05,22,02,03,14.40
2017,05,22,02,04,14.40
2017,05,22,02,05,14.40
2017,05,22,02,06,14.50
2017,05,22,02,07,14.50
2017,05,22,02,08,14.50
2017,05,22,02,09,14.50
2017,05,22,02,10,14.50
2017,05,22,02,11,14.50
2017,05,22,02,12,14.50
2017,05,22,02,13,14.50
2017,05,22,02,14,14.50
2017,05,22,02,15,14.60
2017,05,22,02,16,14.60
2017,05,22,02,17,14.60
2017,05,22,02,18,14.60
2017,05,22,02,19,14.60
2017,05,22,02,20,14.60
2017,05,22,02,21,14.60
2017,05,22,02,22,14.70
2017,05,22,02,23,14.70
2017,05,22,02,24,14.70
2017,05,22,02,25,14.70
2017,05,22,02,26,14.70
2017,05,22,02,27,14.70
2017,05,22,02,28,14.70
2017,05,22,02,29,14.70
2017,05,22,02,30,14.70
2017,05,22,02,31,14.70
2017,05,22,02,32,14.70
2017,05,22,02,33,14.80
2017,05,22,02,34,14.80
2017,05,22,02,35,14.80
2017,05,22,02,36,14.80
2017,05,22,02,37,14.80
2017,05,22,02,38,14.90
2017,05,22,02,39,14.90
2017,05,22,02,40,14.90
2017,05,22,02,41,14.90
2017,05,22,02,42,15.00
2017,05,22,02,43,15.00
2017,05,22,02,44,15.00
2017,05,22,02,45,15.00
2017,05,22,02,46,15.00
2017,05,22,02,47,15.00
2017,05,22,02,48,15.00
2017,05,22,02,49,15.00
2017,05,22,02,50,15.00
2017,05,22,02,51,15.00
2017,05,22,02,52,15.00
2017,05,22,02,53,15.00
2017,05,22,02,54,15.00
2017,05,22,02,55,15.00
2017,05,22,02,56,15.00
2017,05,22,02,57,15.00
2017,05,22,02,58,15.00
2017,05,22,02,59,15.00
2017,05,22,03,00,15.00
2017,05,22,03,01,14.90
2017,05,22,03,02,14.90
2017,05,22,03,03,14.90
2017,05,22,03,04,14.90
2017,05,22,03,05,14.90
2017,05,22,03,06,14.90
2017,05,22,03,07,14.80
2017,05,22,03,08,14.80
2017,05,22,03,09,14.80
2017,05,22,03,10,14.80
2017,05,22,03,11,14.80
2017,05,22,03,12,14.80
2017,05,22,03,13,14.80
2017,05,22,03,14,14.90
2017,05,22,03,15,14.90
2017,05,22,03,16,14.90
2017,05,22,03,17,14.90
2017,05,22,03,18,14.90
2017,05,22,03,19,14.90
2017,05,22,03,20,14.90
2017,05,22,03,21,15.00
2017,05,22,03,22,15.00
2017,05,22,03,23,15.00
2017,05,22,03,24,15.00
2017,05,22,03,25,15.10
2017,05,22,03,26,15.10
2017,05,22,03,27,15.10
2017,05,22,03,28,15.10
2017,05,22,03,29,15.10
2017,05,22,03,30,15.10
2017,05,22,03,31,15.10
2017,05,22,03,32,15.10
2017,05,22,03,33,15.00
2017,05,22,03,34,15.00
2017,05,22,03,35,15.00
2017,05,22,03,36,15.00
2017,05,22,03,37,15.00
2017,05,22,03,38,14.90
2017,05,22,03,39,14.90
2017,05,22,03,40,14.90
2017,05,22,03,41,14.90
2017,05,22,03,42,14.90
2017,05,22,03,43,14.80
2017,05,22,03,44,14.80
2017,05,22,03,45,14.80
2017,05,22,03,46,14.80
2017,05,22,03,47,14.80
2017,05,22,03,48,14.80
2017,05,22,03,49,14.70
2017,05,22,03,50,14.70
2017,05,22,03,51,14.70
2017,05,22,03,52,14.70
2017,05,22,03,53,14.70
2017,05,22,03,54,14.70
2017,05,22,03,55,14.70
2017,05,22,03,56,14.70
2017,05,22,03,57,14.70
2017,05,22,03,58,14.70
2017,05,22,03,59,14.70
2017,05,22,04,00,14.70
2017,05,22,04,01,14.70
2017,05,22,04,02,14.70
2017,05,22,04,03,14.70
2017,05,22,04,04,14.70
2017,05,22,04,05,14.70
2017,05,22,04,06,14.70
2017,05,22,04,07,14.70
2017,05,22,04,08,14.60
2017,05,22,04,09,14.60
2017,05,22,04,10,14.60
2017,05,22,04,11,14.60
2017,05,22,04,12,14.60
2017,05,22,04,13,14.50
2017,05,22,04,14,14.50
2017,05,22,04,15,14.50
2017,05,22,04,16,14.50
2017,05,22,04,17,14.40
2017,05,22,04,18,14.40
2017,05,22,04,19,14.40
2017,05,22,04,20,14.40
2017,05,22,04,21,14.40
2017,05,22,04,22,14.30
2017,05,22,04,23,14.30
2017,05,22,04,24,14.30
2017,05,22,04,25,14.30
2017,05,22,04,26,14.30
2017,05,22,04,27,14.30
2017,05,22,04,28,14.20
2017,05,22,04,29,14.20
2017,05,22,04,30,14.20
2017,05,22,04,31,14.20
2017,05,22,04,32,14.20
2017,05,22,04,33,14.20
2017,05,22,04,34,14.20
2017,05,22,04,35,14.10
2017,05,22,04,36,14.10
2017,05,22,04,37,14.10
2017,05,22,04,38,14.10
2017,05,22,04,39,14.10
2017,05,22,04,40,14.10
2017,05,22,04,41,14.10
2017,05,22,04,42,14.00
2017,05,22,04,43,14.00
2017,05,22,04,44,14.00
2017,05,22,04,45,14.00
2017,05,22,04,46,14.00
2017,05,22,04,47,13.90
2017,05,22,04,48,13.90
2017,05,22,04,49,13.90
2017,05,22,04,50,13.90
2017,05,22,04,51,13.90
2017,05,22,04,52,13.90
2017,05,22,04,53,13.80
2017,05,22,04,54,13.80
2017,05,22,04,55,13.80
2017,05,22,04,56,13.80
2017,05,22,04,57,13.70
2017,05,22,04,58,13.70
2017,05,22,04,59,13.70
2017,05,22,05,00,13.70
2017,05,22,05,01,13.70
2017,05,22,05,02,13.70
2017,05,22,05,03,13.60
2017,05,22,05,04,13.60
2017,05,22,05,05,13.60
2017,05,22,05,06,13.60
2017,05,22,05,07,13.60
2017,05,22,05,08,13.60
2017,05,22,05,09,13.60
2017,05,22,05,10,13.60
2017,05,22,05,11,13.60
2017,05,22,05,12,13.60
2017,05,22,05,13,13.60
2017,05,22,05,14,13.50
2017,05,22,05,15,13.50
2017,05,22,05,16,13.50
2017,05,22,05,17,13.40
2017,05,22,05,18,13.40
2017,05,22,05,19,13.40
2017,05,22,05,20,13.40
2017,05,22,05,21,13.30
2017,05,22,05,22,13.30
2017,05,22,05,23,13.30
2017,05,22,05,24,13.20
2017,05,22,05,25,13.20
2017,05,22,05,26,13.20
2017,05,22,05,27,13.20
2017,05,22,05,28,13.10
2017,05,22,05,29,13.10
2017,05,22,05,30,13.10
2017,05,22,05,31,13.10
2017,05,22,05,32,13.10
2017,05,22,05,33,13.00
2017,05,22,05,34,13.00
2017,05,22,05,35,13.00
2017,05,22,05,36,12.90
2017,05,22,05,37,12.90
2017,05,22,05,38,12.90
2017,05,22,05,39,12.90
2017,05,22,05,40,12.80
2017,05,22,05,41,12.80
2017,05,22,05,42,12.80
2017,05,22,05,43,12.80
2017,05,22,05,44,12.80
2017,05,22,05,45,12.80
2017,05,22,05,46,12.80
2017,05,22,05,47,12.80
2017,05,22,05,48,12.80
2017,05,22,05,49,12.80
2017,05,22,05,50,12.80
2017,05,22,05,51,12.80
2017,05,22,05,52,12.80
2017,05,22,05,53,12.80
2017,05,22,05,54,12.80
2017,05,22,05,55,12.80
2017,05,22,05,56,12.80
2017,05,22,05,57,12.80
2017,05,22,05,58,12.80
2017,05,22,05,59,12.80
2017,05,22,06,00,12.80
2017,05,22,06,01,12.80
2017,05,22,06,02,12.80
2017,05,22,06,03,12.80
2017,05,22,06,04,12.80
2017,05,22,06,05,12.80
2017,05,22,06,06,12.80
2017,05,22,06,07,12.80
2017,05,22,06,08,12.80
2017,05,22,06,09,12.80
2017,05,22,06,10,12.80
2017,05,22,06,11,12.80
2017,05,22,06,12,12.80
2017,05,22,06,13,12.90
2017,05,22,06,14,12.90
2017,05,22,06,15,12.90
2017,05,22,06,16,12.90
2017,05,22,06,17,12.90
2017,05,22,06,18,12.90
2017,05,22,06,19,12.90
2017,05,22,06,20,12.90
2017,05,22,06,21,12.90
2017,05,22,06,22,13.00
2017,05,22,06,23,13.00
2017,05,22,06,24,13.10
2017,05,22,06,25,13.10
2017,05,22,06,26,13.10
2017,05,22,06,27,13.20
2017,05,22,06,28,13.20
2017,05,22,06,29,13.30
2017,05,22,06,30,13.30
2017,05,22,06,31,13.30
2017,05,22,06,32,13.30
2017,05,22,06,33,13.30
2017,05,22,06,34,13.40
2017,05,22,06,35,13.40
2017,05,22,06,36,13.40
2017,05,22,06,37,13.40
2017,05,22,06,38,13.40
2017,05,22,06,39,13.40
2017,05,22,06,40,13.40
2017,05,22,06,41,13.40
2017,05,22,06,42,13.40
2017,05,22,06,43,13.40
2017,05,22,06,44,13.50
2017,05,22,06,45,13.50
2017,05,22,06,46,13.50
2017,05,22,06,47,13.60
2017,05,22,06,48,13.60
2017,05,22,06,49,13.60
2017,05,22,06,50,13.60
2017,05,22,06,51,13.60
2017,05,22,06,52,13.70
2017,05,22,06,53,13.70
2017,05,22,06,54,13.70
2017,05,22,06,55,13.80
2017,05,22,06,56,13.80
2017,05,22,06,57,13.80
2017,05,22,06,58,13.80
2017,05,22,06,59,13.80
2017,05,22,07,00,13.80
2017,05,22,07,01,13.80
2017,05,22,07,02,13.80
2017,05,22,07,03,13.90
2017,05,22,07,04,13.90
2017,05,22,07,05,13.90
2017,05,22,07,06,13.90
2017,05,22,07,07,13.90
2017,05,22,07,08,13.90
2017,05,22,07,09,13.90
2017,05,22,07,10,13.90
2017,05,22,07,11,13.90
2017,05,22,07,12,13.90
2017,05,22,07,13,13.90
2017,05,22,07,14,14.00
2017,05,22,07,15,14.00
2017,05,22,07,16,14.00
2017,05,22,07,17,14.00
2017,05,22,07,18,14.00
2017,05,22,07,19,14.10
2017,05,22,07,20,14.10
2017,05,22,07,21,14.10
2017,05,22,07,22,14.10
2017,05,22,07,23,14.10
2017,05,22,07,24,14.10
2017,05,22,07,25,14.10
2017,05,22,07,26,14.10
2017,05,22,07,27,14.10
2017,05,22,07,28,14.10
2017,05,22,07,29,14.20
2017,05,22,07,30,14.20
2017,05,22,07,31,14.20
2017,05,22,07,32,14.20
2017,05,22,07,33,14.30
2017,05,22,07,34,14.30
2017,05,22,07,35,14.30
2017,05,22,07,36,14.40
2017,05,22,07,37,14.40
2017,05,22,07,38,14.40
2017,05,22,07,39,14.50
2017,05,22,07,40,14.60
2017,05,22,07,41,14.60
2017,05,22,07,42,14.70
2017,05,22,07,43,14.80
2017,05,22,07,44,14.80
2017,05,22,07,45,14.90
2017,05,22,07,46,14.90
2017,05,22,07,47,15.00
2017,05,22,07,48,15.10
2017,05,22,07,49,15.10
2017,05,22,07,50,15.10
2017,05,22,07,51,15.20
2017,05,22,07,52,15.20
2017,05,22,07,53,15.30
2017,05,22,07,54,15.30
2017,05,22,07,55,15.40
2017,05,22,07,56,15.40
2017,05,22,07,57,15.40
2017,05,22,07,58,15.50
2017,05,22,07,59,15.50
2017,05,22,08,00,15.50
2017,05,22,08,01,15.60
2017,05,22,08,02,15.60
2017,05,22,08,03,15.70
2017,05,22,08,04,15.70
2017,05,22,08,05,15.70
2017,05,22,08,06,15.70
2017,05,22,08,07,15.70
2017,05,22,08,08,15.80
2017,05,22,08,09,15.80
2017,05,22,08,10,15.80
2017,05,22,08,11,15.80
2017,05,22,08,12,15.80
2017,05,22,08,13,15.80
2017,05,22,08,14,15.80
2017,05,22,08,15,15.90
2017,05,22,08,16,15.90
2017,05,22,08,17,15.90
2017,05,22,08,18,16.00
2017,05,22,08,19,16.00
2017,05,22,08,20,16.10
2017,05,22,08,21,16.10
2017,05,22,08,22,16.10
2017,05,22,08,23,16.20
2017,05,22,08,24,16.20
2017,05,22,08,25,16.30
2017,05,22,08,26,16.30
2017,05,22,08,27,16.40
2017,05,22,08,28,16.40
2017,05,22,08,29,16.50
2017,05,22,08,30,16.60
2017,05,22,08,31,16.60
2017,05,22,08,32,16.70
2017,05,22,08,33,16.80
2017,05,22,08,34,16.80
2017,05,22,08,35,16.90
2017,05,22,08,36,17.00
2017,05,22,08,37,17.10
2017,05,22,08,38,17.10
2017,05,22,08,39,17.20
2017,05,22,08,40,17.20
2017,05,22,08,41,17.20
2017,05,22,08,42,17.20
2017,05,22,08,43,17.30
2017,05,22,08,44,17.30
2017,05,22,08,45,17.30
2017,05,22,08,46,17.30
2017,05,22,08,47,17.30
2017,05,22,08,48,17.30
2017,05,22,08,49,17.40
2017,05,22,08,50,17.40
2017,05,22,08,51,17.40
2017,05,22,08,52,17.50
2017,05,22,08,53,17.50
2017,05,22,08,54,17.60
2017,05,22,08,55,17.60
2017,05,22,08,56,17.70
2017,05,22,08,57,17.70
2017,05,22,08,58,17.80
2017,05,22,08,59,17.80
2017,05,22,09,00,17.90
2017,05,22,09,01,17.90
2017,05,22,09,02,18.00
2017,05,22,09,03,18.00
2017,05,22,09,04,18.10
2017,05,22,09,05,18.10
2017,05,22,09,06,18.10
2017,05,22,09,07,18.20
2017,05,22,09,08,18.20
2017,05,22,09,09,18.20
2017,05,22,09,10,18.20
2017,05,22,09,11,18.20
2017,05,22,09,12,18.20
2017,05,22,09,13,18.20
2017,05,22,09,14,18.20
2017,05,22,09,15,18.20
2017,05,22,09,16,18.20
2017,05,22,09,17,18.30
2017,05,22,09,18,18.30
2017,05,22,09,19,18.30
2017,05,22,09,20,18.40
2017,05,22,09,21,18.40
2017,05,22,09,22,18.40
2017,05,22,09,23,18.50
2017,05,22,09,24,18.50
2017,05,22,09,25,18.60
2017,05,22,09,26,18.60
2017,05,22,09,27,18.70
2017,05,22,09,28,18.70
2017,05,22,09,29,18.70
2017,05,22,09,30,18.70
2017,05,22,09,31,18.70
2017,05,22,09,32,18.80
2017,05,22,09,33,18.80
2017,05,22,09,34,18.80
2017,05,22,09,35,18.80
2017,05,22,09,36,18.80
2017,05,22,09,37,18.90
2017,05,22,09,38,18.90
2017,05,22,09,39,19.00
2017,05,22,09,40,19.00
2017,05,22,09,41,19.00
2017,05,22,09,42,19.10
2017,05,22,09,43,19.10
2017,05,22,09,44,19.10
2017,05,22,09,45,19.10
2017,05,22,09,46,19.10
2017,05,22,09,47,19.10
2017,05,22,09,48,19.10
2017,05,22,09,49,19.10
2017,05,22,09,50,19.10
2017,05,22,09,51,19.10
2017,05,22,09,52,19.10
2017,05,22,09,53,19.10
2017,05,22,09,54,19.10
2017,05,22,09,55,19.20
2017,05,22,09,56,19.20
2017,05,22,09,57,19.20
2017,05,22,09,58,19.20
2017,05,22,09,59,19.20
2017,05,22,10,00,19.20
2017,05,22,10,01,19.30
2017,05,22,10,02,19.30
2017,05,22,10,03,19.40
2017,05,22,10,04,19.40
2017,05,22,10,05,19.40
2017,05,22,10,06,19.50
2017,05,22,10,07,19.50
2017,05,22,10,08,19.60
2017,05,22,10,09,19.60
2017,05,22,10,10,19.60
2017,05,22,10,11,19.60
2017,05,22,10,12,19.60
2017,05,22,10,13,19.60
2017,05,22,10,14,19.70
2017,05,22,10,15,19.70
2017,05,22,10,16,19.70
2017,05,22,10,17,19.70
2017,05,22,10,18,19.70
2017,05,22,10,19,19.70
2017,05,22,10,20,19.70
2017,05,22,10,21,19.70
2017,05,22,10,22,19.70
2017,05,22,10,23,19.80
2017,05,22,10,24,19.80
2017,05,22,10,25,19.80
2017,05,22,10,26,19.80
2017,05,22,10,27,19.80
2017,05,22,10,28,19.80
2017,05,22,10,29,19.90
2017,05,22,10,30,19.90
2017,05,22,10,31,20.00
2017,05,22,10,32,20.00
2017,05,22,10,33,20.10
2017,05,22,10,34,20.20
2017,05,22,10,35,20.20
2017,05,22,10,36,20.30
2017,05,22,10,37,20.30
2017,05,22,10,38,20.30
2017,05,22,10,39,20.40
2017,05,22,10,40,20.40
2017,05,22,10,41,20.50
2017,05,22,10,42,20.50
2017,05,22,10,43,20.50
2017,05,22,10,44,20.60
2017,05,22,10,45,20.60
2017,05,22,10,46,20.70
2017,05,22,10,47,20.70
2017,05,22,10,48,20.70
2017,05,22,10,49,20.70
2017,05,22,10,50,20.80
2017,05,22,10,51,20.80
2017,05,22,10,52,20.80
2017,05,22,10,53,20.80
2017,05,22,10,54,20.80
2017,05,22,10,55,20.80
2017,05,22,10,56,20.80
2017,05,22,10,57,20.90
2017,05,22,10,58,20.90
2017,05,22,10,59,21.00
2017,05,22,11,00,21.00
2017,05,22,11,01,21.00
2017,05,22,11,02,21.00
2017,05,22,11,03,21.00
2017,05,22,11,04,21.00
2017,05,22,11,05,21.00
2017,05,22,11,06,21.00
2017,05,22,11,07,20.90
2017,05,22,11,08,20.90
2017,05,22,11,09,20.90
2017,05,22,11,10,20.90
2017,05,22,11,11,20.90
2017,05,22,11,12,20.90
2017,05,22,11,13,20.90
2017,05,22,11,14,21.00
2017,05,22,11,15,21.00
2017,05,22,11,16,21.10
2017,05,22,11,17,21.10
2017,05,22,11,18,21.10
2017,05,22,11,19,21.20
2017,05,22,11,20,21.20
2017,05,22,11,21,21.20
2017,05,22,11,22,21.20
2017,05,22,11,23,21.20
2017,05,22,11,24,21.20
2017,05,22,11,25,21.20
2017,05,22,11,26,21.20
2017,05,22,11,27,21.20
2017,05,22,11,28,21.20
2017,05,22,11,29,21.20
2017,05,22,11,30,21.20
2017,05,22,11,31,21.30
2017,05,22,11,32,21.30
2017,05,22,11,33,21.30
2017,05,22,11,34,21.30
2017,05,22,11,35,21.40
2017,05,22,11,36,21.40
2017,05,22,11,37,21.40
2017,05,22,11,38,21.30
2017,05,22,11,39,21.30
2017,05,22,11,40,21.20
2017,05,22,11,41,21.20
2017,05,22,11,42,21.20
2017,05,22,11,43,21.10
2017,05,22,11,44,21.10
2017,05,22,11,45,21.10
2017,05,22,11,46,21.10
2017,05,22,11,47,21.20
2017,05,22,11,48,21.20
2017,05,22,11,49,21.30
2017,05,22,11,50,21.30
2017,05,22,11,51,21.40
2017,05,22,11,52,21.50
2017,05,22,11,53,21.60
2017,05,22,11,54,21.70
2017,05,22,11,55,21.70
2017,05,22,11,56,21.80
2017,05,22,11,57,21.80
2017,05,22,11,58,21.80
2017,05,22,11,59,21.80
2017,05,22,12,00,21.80
2017,05,22,12,01,21.90
2017,05,22,12,02,21.90
2017,05,22,12,03,21.90
2017,05,22,12,04,22.00
2017,05,22,12,05,22.00
2017,05,22,12,06,22.10
2017,05,22,12,07,22.10
2017,05,22,12,08,22.10
2017,05,22,12,09,22.10
2017,05,22,12,10,22.10
2017,05,22,12,11,22.10
2017,05,22,12,12,22.20
2017,05,22,12,13,22.20
2017,05,22,12,14,22.30
2017,05,22,12,15,22.40
2017,05,22,12,16,22.50
2017,05,22,12,17,22.60
2017,05,22,12,18,22.70
2017,05,22,12,19,22.80
2017,05,22,12,20,22.90
2017,05,22,12,21,22.90
2017,05,22,12,22,23.00
2017,05,22,12,23,23.10
2017,05,22,12,24,23.10
2017,05,22,12,25,23.20
2017,05,22,12,26,23.20
2017,05,22,12,27,23.20
2017,05,22,12,28,23.30
2017,05,22,12,29,23.30
2017,05,22,12,30,23.30
2017,05,22,12,31,23.30
2017,05,22,12,32,23.20
2017,05,22,12,33,23.20
2017,05,22,12,34,23.20
2017,05,22,12,35,23.20
2017,05,22,12,36,23.20
2017,05,22,12,37,23.10
2017,05,22,12,38,23.10
2017,05,22,12,39,23.20
2017,05,22,12,40,23.10
2017,05,22,12,41,23.10
2017,05,22,12,42,23.10
2017,05,22,12,43,23.10
2017,05,22,12,44,23.20
2017,05,22,12,45,23.20
2017,05,22,12,46,23.30
2017,05,22,12,47,23.30
2017,05,22,12,48,23.40
2017,05,22,12,49,23.40
2017,05,22,12,50,23.50
2017,05,22,12,51,23.60
2017,05,22,12,52,23.70
2017,05,22,12,53,23.70
2017,05,22,12,54,23.70
2017,05,22,12,55,23.80
2017,05,22,12,56,23.80
2017,05,22,12,57,23.90
2017,05,22,12,58,23.90
2017,05,22,12,59,24.00
2017,05,22,13,00,24.00
2017,05,22,13,01,24.10
2017,05,22,13,02,24.10
2017,05,22,13,03,24.10
2017,05,22,13,04,24.10
2017,05,22,13,05,24.10
2017,05,22,13,06,24.10
2017,05,22,13,07,24.10
2017,05,22,13,08,24.10
2017,05,22,13,09,24.00
2017,05,22,13,10,24.00
2017,05,22,13,11,23.80
2017,05,22,13,12,23.70
2017,05,22,13,13,23.60
2017,05,22,13,14,23.60
2017,05,22,13,15,23.50
2017,05,22,13,16,23.50
2017,05,22,13,17,23.50
2017,05,22,13,18,23.50
2017,05,22,13,19,23.40
2017,05,22,13,20,23.40
2017,05,22,13,21,23.30
2017,05,22,13,22,23.30
2017,05,22,13,23,23.30
2017,05,22,13,24,23.30
2017,05,22,13,25,23.30
2017,05,22,13,26,23.30
2017,05,22,13,27,23.30
2017,05,22,13,28,23.40
2017,05,22,13,29,23.40
2017,05,22,13,30,23.50
2017,05,22,13,31,23.50
2017,05,22,13,32,23.60
2017,05,22,13,33,23.60
2017,05,22,13,34,23.60
2017,05,22,13,35,23.60
2017,05,22,13,36,23.60
2017,05,22,13,37,23.70
2017,05,22,13,38,23.70
2017,05,22,13,39,23.80
2017,05,22,13,40,23.90
2017,05,22,13,41,23.90
2017,05,22,13,42,23.90
2017,05,22,13,43,23.90
2017,05,22,13,44,24.00
2017,05,22,13,45,24.00
2017,05,22,13,46,24.00
2017,05,22,13,47,24.00
2017,05,22,13,48,24.10
2017,05,22,13,49,24.10
2017,05,22,13,50,24.10
2017,05,22,13,51,24.10
2017,05,22,13,52,24.10
2017,05,22,13,53,24.20
2017,05,22,13,54,24.20
2017,05,22,13,55,24.20
2017,05,22,13,56,24.20
2017,05,22,13,57,24.20
2017,05,22,13,58,24.20
2017,05,22,13,59,24.20
2017,05,22,14,00,24.20
2017,05,22,14,01,24.30
2017,05,22,14,02,24.30
2017,05,22,14,03,24.30
2017,05,22,14,04,24.40
2017,05,22,14,05,24.40
2017,05,22,14,06,24.30
2017,05,22,14,07,24.30
2017,05,22,14,08,24.30
2017,05,22,14,09,24.30
2017,05,22,14,10,24.30
2017,05,22,14,11,24.30
2017,05,22,14,12,24.30
2017,05,22,14,13,24.40
2017,05,22,14,14,24.40
2017,05,22,14,15,24.40
2017,05,22,14,16,24.50
2017,05,22,14,17,24.60
2017,05,22,14,18,24.60
2017,05,22,14,19,24.70
2017,05,22,14,20,24.70
2017,05,22,14,21,24.70
2017,05,22,14,22,24.80
2017,05,22,14,23,24.80
2017,05,22,14,24,24.80
2017,05,22,14,25,24.80
2017,05,22,14,26,24.80
2017,05,22,14,27,24.80
2017,05,22,14,28,24.80
2017,05,22,14,29,24.80
2017,05,22,14,30,24.80
2017,05,22,14,31,24.80
2017,05,22,14,32,24.80
2017,05,22,14,33,24.90
2017,05,22,14,34,24.90
2017,05,22,14,35,25.00
2017,05,22,14,36,25.00
2017,05,22,14,37,25.00
2017,05,22,14,38,25.10
2017,05,22,14,39,25.10
2017,05,22,14,40,25.10
2017,05,22,14,41,25.10
2017,05,22,14,42,25.10
2017,05,22,14,43,25.10
2017,05,22,14,44,25.10
2017,05,22,14,45,25.10
2017,05,22,14,46,25.20
2017,05,22,14,47,25.20
2017,05,22,14,48,25.20
2017,05,22,14,49,25.20
2017,05,22,14,50,25.30
2017,05,22,14,51,25.30
2017,05,22,14,52,25.30
2017,05,22,14,53,25.30
2017,05,22,14,54,25.30
2017,05,22,14,55,25.30
2017,05,22,14,56,25.40
2017,05,22,14,57,25.40
2017,05,22,14,58,25.50
2017,05,22,14,59,25.60
2017,05,22,15,00,25.60
2017,05,22,15,01,25.70
2017,05,22,15,02,25.90
2017,05,22,15,03,26.00
2017,05,22,15,04,26.10
2017,05,22,15,05,26.20
2017,05,22,15,06,26.30
2017,05,22,15,07,26.30
2017,05,22,15,08,26.40
2017,05,22,15,09,26.40
2017,05,22,15,10,26.40
2017,05,22,15,11,26.40
2017,05,22,15,12,26.50
2017,05,22,15,13,26.60
2017,05,22,15,14,26.60
2017,05,22,15,15,26.70
2017,05,22,15,16,26.70
2017,05,22,15,17,26.80
2017,05,22,15,18,26.80
2017,05,22,15,19,26.80
2017,05,22,15,20,26.80
2017,05,22,15,21,26.90
2017,05,22,15,22,26.90
2017,05,22,15,23,26.90
2017,05,22,15,24,26.80
2017,05,22,15,25,26.70
2017,05,22,15,26,26.50
2017,05,22,15,27,26.40
2017,05,22,15,28,26.30
2017,05,22,15,29,26.20
2017,05,22,15,30,26.10
2017,05,22,15,31,26.10
2017,05,22,15,32,26.10
2017,05,22,15,33,26.10
2017,05,22,15,34,26.10
2017,05,22,15,35,26.00
2017,05,22,15,36,26.00
2017,05,22,15,37,25.90
2017,05,22,15,38,25.90
2017,05,22,15,39,25.80
2017,05,22,15,40,25.80
2017,05,22,15,41,25.80
2017,05,22,15,42,25.80
2017,05,22,15,43,25.80
2017,05,22,15,44,25.90
2017,05,22,15,45,25.90
2017,05,22,15,46,26.00
2017,05,22,15,47,26.10
2017,05,22,15,48,26.20
2017,05,22,15,49,26.30
2017,05,22,15,50,26.30
2017,05,22,15,51,26.30
2017,05,22,15,52,26.40
2017,05,22,15,53,26.40
2017,05,22,15,54,26.40
2017,05,22,15,55,26.40
2017,05,22,15,56,26.40
2017,05,22,15,57,26.50
2017,05,22,15,58,26.50
2017,05,22,15,59,26.60
2017,05,22,16,00,26.60
2017,05,22,16,01,26.60
2017,05,22,16,02,26.70
2017,05,22,16,03,26.70
2017,05,22,16,04,26.80
2017,05,22,16,05,26.80
2017,05,22,16,06,26.90
2017,05,22,16,07,27.00
2017,05,22,16,08,27.10
2017,05,22,16,09,27.10
2017,05,22,16,10,27.20
2017,05,22,16,11,27.30
2017,05,22,16,12,27.30
2017,05,22,16,13,27.30
2017,05,22,16,14,27.20
2017,05,22,16,15,27.10
2017,05,22,16,16,27.10
2017,05,22,16,17,27.00
2017,05,22,16,18,27.00
2017,05,22,16,19,27.00
2017,05,22,16,20,27.10
2017,05,22,16,21,27.10
2017,05,22,16,22,27.20
2017,05,22,16,23,27.30
2017,05,22,16,24,27.30
2017,05,22,16,25,27.30
2017,05,22,16,26,27.40
2017,05,22,16,27,27.40
2017,05,22,16,28,27.50
2017,05,22,16,29,27.50
2017,05,22,16,30,27.50
2017,05,22,16,31,27.60
2017,05,22,16,32,27.60
2017,05,22,16,33,27.60
2017,05,22,16,34,27.70
2017,05,22,16,35,27.70
2017,05,22,16,36,27.70
2017,05,22,16,37,27.60
2017,05,22,16,38,27.50
2017,05,22,16,39,27.40
2017,05,22,16,40,27.30
2017,05,22,16,41,27.20
2017,05,22,16,42,27.20
2017,05,22,16,43,27.20
2017,05,22,16,44,27.10
2017,05,22,16,45,27.10
2017,05,22,16,46,27.10
2017,05,22,16,47,27.10
2017,05,22,16,48,27.10
2017,05,22,16,49,27.00
2017,05,22,16,50,27.00
2017,05,22,16,51,27.00
2017,05,22,16,52,27.00
2017,05,22,16,53,27.10
2017,05,22,16,54,27.10
2017,05,22,16,55,27.10
2017,05,22,16,56,27.10
2017,05,22,16,57,27.20
2017,05,22,16,58,27.20
2017,05,22,16,59,27.20
2017,05,22,17,00,27.30
2017,05,22,17,01,27.30
2017,05,22,17,02,27.30
2017,05,22,17,03,27.40
2017,05,22,17,04,27.40
2017,05,22,17,05,27.40
2017,05,22,17,06,27.50
2017,05,22,17,07,27.40
2017,05,22,17,08,27.40
2017,05,22,17,09,27.40
2017,05,22,17,10,27.30
2017,05,22,17,11,27.30
2017,05,22,17,12,27.30
2017,05,22,17,13,27.30
2017,05,22,17,14,27.40
2017,05,22,17,15,27.40
2017,05,22,17,16,27.40
2017,05,22,17,17,27.50
2017,05,22,17,18,27.60
2017,05,22,17,19,27.60